Location: Malcolm X Square
(37.7810°N, 122.4297°W)
Time: 23:54:04
(UTC+00:00)

DMSP B5D2-2 - Pass Details

Date: 13 April 2024
Orbit: 788 x 802 km, 98.3° (Epoch: 21 May)

Event Time Altitude Azimuth Distance (km) Brightness Sun altitude
Rises 12:10:44 0° 168° (SSE) 3,272 7.1 -16.8°
Reaches altitude 10° 12:13:02 10° 168° (SSE) 2,345 6.4 -16.4°
Maximum altitude 12:18:14 83° 257° (WSW) 799 4.0 -15.5°
Drops below altitude 10° 12:23:27 10° 346° (NNW) 2,357 6.7 -14.5°
Sets 12:25:46 0° 347° (NNW) 3,290 7.4 -14.1°
